Orbital Elements at Epoch 2459000.5 (2020-May-31.0) TDB
Reference: JPL 16 (heliocentric ecliptic J2000)
Element | Value | Uncertainty (1-sigma) | Units |
e | .1555983970325523 | 7.7906e-08 | |
a | 3.103298504799532 | 3.7321e-08 | au |
q | 2.620430231939208 | 2.5919e-07 | au |
i | 9.833938915640061 | 5.7012e-06 | deg |
node | 84.46610967850403 | 3.287e-05 | deg |
peri | 261.9888743234307 | 3.7968e-05 | deg |
M | 310.7542189135748 | 1.7664e-05 | deg |
tp | 2459273.649421168379 (2021-Feb-28.14942117) | 9.9056e-05 | TDB |
period | 1996.79626256801 5.47 | 3.6021e-05 9.862e-08 | d yr |
n | .1802887989869414 | 3.2523e-09 | deg/d |
Q | 3.586166777659855 | 4.3129e-08 | au |
|
| | Orbit Determination Parameters
Additional Information
|